• In Slovakia
  • List of Countries
  • For 7 days
  • Water Temperature
  • Satellite Maps
  • Weather Map
  • Weather Widgets
  • user-avatar
    Login

    Hourly Weather Melbourne

    Today, 25 September, Tuesday

    Time Temperature Precipitation Wind Pressure Humidity
    00:00 +7°C° 0 mm 2 mps 770 mmHg 91%
    01:00 +7°C° 0 mm 2 mps 770 mmHg 92%
    02:00 +7°C° 0 mm 2 mps 770 mmHg 92%
    03:00 +6°C° 0 mm 2 mps 770 mmHg 92%
    04:00 +6°C° 0 mm 2 mps 770 mmHg 93%
    05:00 +6°C° 0 mm 2 mps 770 mmHg 92%
    06:00 +6°C° 0 mm 2 mps 770 mmHg 91%
    07:00 +8°C° 0 mm 1 mps 770 mmHg 90%
    08:00 +9°C° 0 mm 2 mps 770 mmHg 80%
    09:00 +10°C° 0 mm 2 mps 770 mmHg 71%
    10:00 +13°C° 0 mm 2 mps 770 mmHg 61%
    11:00 +13°C° 0 mm 3 mps 769 mmHg 59%
    12:00 +14°C° 0 mm 3 mps 769 mmHg 56%
    13:00 +14°C° 0 mm 3 mps 769 mmHg 53%
    14:00 +14°C° 0 mm 3 mps 768 mmHg 54%
    15:00 +13°C° 0 mm 4 mps 768 mmHg 56%
    16:00 +13°C° 0 mm 4 mps 768 mmHg 58%
    17:00 +11°C° 0 mm 3 mps 768 mmHg 64%
    18:00 +10°C° 0 mm 3 mps 768 mmHg 70%
    19:00 +8°C° 0 mm 3 mps 768 mmHg 76%
    20:00 +8°C° 0 mm 3 mps 768 mmHg 80%
    21:00 +7°C° 0 mm 2 mps 768 mmHg 84%
    22:00 +7°C° 0 mm 2 mps 769 mmHg 87%
    23:00 +6°C° 0 mm 2 mps 768 mmHg 88%

    Tomorrow, 26 September, Wednesday

    Time Temperature Precipitation Wind Pressure Humidity
    00:00 +6°C° 0 mm 2 mps 768 mmHg 89%
    01:00 +6°C° 0 mm 2 mps 768 mmHg 90%
    02:00 +5°C° 0 mm 2 mps 768 mmHg 91%
    03:00 +5°C° 0 mm 2 mps 767 mmHg 93%
    04:00 +5°C° 0 mm 2 mps 767 mmHg 94%
    05:00 +6°C° 0 mm 1 mps 767 mmHg 94%
    06:00 +6°C° 0 mm 1 mps 767 mmHg 93%
    07:00 +6°C° 0 mm 1 mps 767 mmHg 93%
    08:00 +9°C° 0 mm 1 mps 767 mmHg 79%
    09:00 +12°C° 0 mm 1 mps 766 mmHg 66%
    10:00 +16°C° 0 mm 1 mps 766 mmHg 53%
    11:00 +18°C° 0 mm 1 mps 765 mmHg 49%
    12:00 +19°C° 0 mm 1 mps 765 mmHg 45%
    13:00 +20°C° 0 mm 1 mps 764 mmHg 41%
    14:00 +19°C° 0 mm 2 mps 763 mmHg 42%
    15:00 +19°C° 0 mm 2 mps 763 mmHg 43%
    16:00 +19°C° 0 mm 2 mps 762 mmHg 44%
    17:00 +17°C° 0 mm 2 mps 762 mmHg 52%
    18:00 +15°C° 0 mm 2 mps 762 mmHg 59%
    19:00 +13°C° 0 mm 1 mps 763 mmHg 67%
    20:00 +13°C° 0 mm 2 mps 763 mmHg 69%
    21:00 +13°C° 0 mm 2 mps 763 mmHg 71%
    22:00 +12°C° 0 mm 2 mps 763 mmHg 73%
    23:00 +12°C° 0 mm 2 mps 762 mmHg 73%

    Day after tomorrow, 27 September, Thursday

    Time Temperature Precipitation Wind Pressure Humidity
    00:00 +13°C° 0 mm 2 mps 762 mmHg 72%
    01:00 +13°C° 0 mm 2 mps 761 mmHg 72%
    02:00 +12°C° 0 mm 3 mps 761 mmHg 72%
    03:00 +12°C° 0 mm 4 mps 760 mmHg 71%
    04:00 +12°C° 0 mm 5 mps 760 mmHg 71%
    05:00 +12°C° 0 mm 5 mps 760 mmHg 70%
    06:00 +11°C° 0 mm 6 mps 760 mmHg 69%
    07:00 +11°C° 0 mm 6 mps 760 mmHg 68%
    08:00 +14°C° 0 mm 6 mps 760 mmHg 62%
    09:00 +16°C° 0 mm 6 mps 759 mmHg 56%
    10:00 +19°C° 0 mm 6 mps 759 mmHg 50%
    11:00 +20°C° 0 mm 6 mps 758 mmHg 48%
    12:00 +21°C° 0 mm 6 mps 758 mmHg 47%
    13:00 +22°C° 0 mm 6 mps 757 mmHg 45%
    14:00 +22°C° 0 mm 6 mps 757 mmHg 44%
    15:00 +23°C° 0 mm 5 mps 756 mmHg 44%
    16:00 +23°C° 0 mm 5 mps 756 mmHg 43%
    17:00 +20°C° 0 mm 4 mps 757 mmHg 53%
    18:00 +18°C° 0 mm 4 mps 757 mmHg 62%
    19:00 +14°C° 0 mm 3 mps 758 mmHg 72%
    20:00 +13°C° 0 mm 3 mps 758 mmHg 76%
    21:00 +12°C° 0 mm 3 mps 759 mmHg 80%
    22:00 +11°C° 0 mm 3 mps 760 mmHg 84%
    23:00 +10°C° 0 mm 3 mps 759 mmHg 86%

    28 September, Friday

    Time Temperature Precipitation Wind Pressure Humidity
    00:00 +9°C° 0 mm 3 mps 759 mmHg 87%
    01:00 +8°C° 0 mm 3 mps 759 mmHg 89%
    02:00 +8°C° 0 mm 3 mps 759 mmHg 90%
    03:00 +8°C° 0 mm 3 mps 759 mmHg 91%
    04:00 +7°C° 0 mm 3 mps 758 mmHg 93%
    05:00 +8°C° 0 mm 3 mps 759 mmHg 91%
    06:00 +8°C° 0 mm 3 mps 759 mmHg 90%
    07:00 +8°C° 0 mm 3 mps 759 mmHg 88%
    08:00 +10°C° 0 mm 3 mps 760 mmHg 78%
    09:00 +12°C° 0 mm 3 mps 760 mmHg 68%
    10:00 +14°C° 0 mm 4 mps 760 mmHg 58%
    11:00 +14°C° 0 mm 4 mps 760 mmHg 54%
    12:00 +15°C° 0 mm 4 mps 759 mmHg 50%
    13:00 +17°C° 0 mm 4 mps 759 mmHg 47%
    14:00 +14°C° 0.2 mm 4 mps 759 mmHg 57%
    15:00 +13°C° 0.2 mm 4 mps 759 mmHg 68%
    16:00 +11°C° 0.2 mm 4 mps 759 mmHg 79%
    17:00 +10°C° 0.5 mm 3 mps 759 mmHg 84%
    18:00 +10°C° 0.5 mm 3 mps 760 mmHg 89%
    19:00 +9°C° 0.5 mm 2 mps 760 mmHg 93%
    20:00 +8°C° 0.2 mm 2 mps 760 mmHg 93%
    21:00 +7°C° 0.2 mm 2 mps 761 mmHg 93%
    22:00 +7°C° 0.2 mm 2 mps 761 mmHg 93%
    23:00 +5°C° 0.1 mm 3 mps 761 mmHg 94%

    29 September, Saturday

    Time Temperature Precipitation Wind Pressure Humidity
    00:00 +5°C° 0.1 mm 3 mps 761 mmHg 94%
    01:00 +4°C° 0.1 mm 3 mps 761 mmHg 95%
    02:00 +4°C° 0.3 mm 3 mps 761 mmHg 95%
    03:00 +4°C° 0.3 mm 3 mps 761 mmHg 95%
    04:00 +3°C° 0.3 mm 4 mps 762 mmHg 95%
    05:00 +4°C° 0.3 mm 4 mps 762 mmHg 94%
    06:00 +4°C° 0.3 mm 4 mps 763 mmHg 94%
    07:00 +4°C° 0.3 mm 4 mps 764 mmHg 93%
    08:00 +6°C° 0.2 mm 4 mps 764 mmHg 84%
    09:00 +7°C° 0.2 mm 4 mps 765 mmHg 75%
    10:00 +9°C° 0.2 mm 5 mps 765 mmHg 66%
    11:00 +10°C° 0.1 mm 5 mps 765 mmHg 59%
    12:00 +12°C° 0.1 mm 5 mps 765 mmHg 53%
    13:00 +13°C° 0.1 mm 5 mps 765 mmHg 47%
    14:00 +12°C° 0 mm 5 mps 765 mmHg 49%
    15:00 +12°C° 0 mm 4 mps 765 mmHg 51%
    16:00 +12°C° 0 mm 4 mps 765 mmHg 53%
    17:00 +10°C° 0 mm 4 mps 766 mmHg 58%
    18:00 +9°C° 0 mm 3 mps 767 mmHg 64%
    19:00 +8°C° 0 mm 3 mps 767 mmHg 69%
    20:00 +7°C° 0 mm 3 mps 768 mmHg 72%
    21:00 +5°C° 0 mm 3 mps 768 mmHg 75%
    22:00 +5°C° 0 mm 3 mps 769 mmHg 78%
    23:00 +5°C° 0 mm 3 mps 769 mmHg 80%

    30 September, Sunday

    Time Temperature Precipitation Wind Pressure Humidity
    00:00 +5°C° 0 mm 3 mps 769 mmHg 82%
    01:00 +5°C° 0 mm 3 mps 769 mmHg 84%
    02:00 +4°C° 0 mm 3 mps 769 mmHg 86%
    03:00 +4°C° 0 mm 3 mps 769 mmHg 88%
    04:00 +4°C° 0 mm 3 mps 769 mmHg 90%
    05:00 +5°C° 0 mm 3 mps 770 mmHg 89%
    06:00 +6°C° 0 mm 2 mps 770 mmHg 87%
    07:00 +6°C° 0 mm 2 mps 771 mmHg 86%
    08:00 +9°C° 0 mm 2 mps 771 mmHg 76%
    09:00 +12°C° 0 mm 2 mps 771 mmHg 65%
    10:00 +15°C° 0 mm 2 mps 770 mmHg 55%
    11:00 +16°C° 0 mm 2 mps 770 mmHg 52%
    12:00 +17°C° 0 mm 2 mps 770 mmHg 48%
    13:00 +19°C° 0 mm 1 mps 770 mmHg 45%
    14:00 +19°C° 0 mm 1 mps 769 mmHg 46%
    15:00 +19°C° 0 mm 1 mps 769 mmHg 47%
    16:00 +18°C° 0 mm 2 mps 769 mmHg 48%
    17:00 +16°C° 0 mm 1 mps 769 mmHg 57%
    18:00 +13°C° 0 mm 1 mps 770 mmHg 66%
    19:00 +11°C° 0 mm 1 mps 770 mmHg 74%
    20:00 +10°C° 0 mm 1 mps 771 mmHg 79%
    21:00 +9°C° 0 mm 1 mps 771 mmHg 83%
    22:00 +9°C° 0 mm 1 mps 771 mmHg 87%
    23:00 +8°C° 0 mm 1 mps 771 mmHg 88%
    Show more